#timestamp,LO_Frequency,Hit 
1501322415.2,286046968.1,N
1501322435.9,286046966.4,N
1501322455.7,286046967.4,N
1501322475.6,286046965.3,N
1501322495.4,286046965.5,N
1501322515.2,286046963.7,N
1501322535.1,286046963.2,N
1501322536.0,286046963.2,N
1501322555.8,286046964.3,N
1501322575.6,286046964.1,N
1501322595.4,286046961.8,N
1501322615.3,286046961.3,N
1501322635.1,286046961.5,N
1501322655.8,286046961.7,N
1501322675.7,286046962.1,N
1501322695.5,286046962.3,N
1501322715.3,286046962.7,N
1501322735.2,286046960.2,N
1501322755.9,286046960.3,N
1501322775.7,286046960.9,N
1501322795.6,286046960.8,N
1501322815.4,286046961.0,N
1501322835.2,286046958.2,N
1501322855.0,286046960.7,N
1501322855.9,286046960.7,N
1501322875.8,286046961.2,N
1501322895.6,286046960.3,N
1501322915.4,286046960.9,N
1501322935.3,286046956.5,N
1501322955.1,286046956.7,N
1501322956.0,286046956.7,N
1501322975.8,286046957.6,N
1501322995.7,286046957.9,N
1501323015.5,286046955.7,N
1501323035.3,286046955.4,N
1501323055.2,286046955.6,N
1501323075.9,286046955.9,N
1501323095.7,286046954.7,N
1501323115.5,286046952.8,N
1501323135.4,286046950.1,Y
1501323155.2,286046975.6,N
1501323175.1,286046975.5,N
1501323176.0,286046975.5,N
1501323195.8,286046975.5,N
1501323215.6,286046974.8,N
1501323235.4,286046972.9,N
1501323255.3,286046972.5,N
1501323275.1,286046973.5,N
1501323295.8,286046972.2,N
1501323315.7,286046970.0,N
1501323335.5,286046970.7,N
1501323355.3,286046968.2,N
1501323375.2,286046966.2,N
1501323395.9,286046967.1,N
1501323415.7,286046967.2,N
1501323435.6,286046965.8,N
1501323455.4,286046967.2,N
1501323475.2,286046967.5,N
1501323495.0,286046967.6,N
1501323495.9,286046967.6,N
1501323515.8,286046966.6,N
1501323535.6,286046966.3,N
1501323555.4,286046966.8,N
1501323575.3,286046965.1,N
1501323595.1,286046963.1,N
1501323615.8,286046963.2,N
1501323635.7,286046964.3,N
1501323655.5,286046961.5,N
1501323675.3,286046962.6,N
1501323695.2,286046962.0,N
1501323715.9,286046961.9,N
1501323735.7,286046961.5,N
1501323755.5,286046961.7,N
1501323775.4,286046964.4,N
1501323795.2,286046964.0,N
1501323815.0,286046965.7,N
1501323815.9,286046965.7,N
1501323835.8,286046963.4,N
1501323855.6,286046961.7,N
1501323875.4,286046962.8,N
1501323895.3,286046960.8,N
1501323915.1,286046958.3,N
1501323916.0,286046958.3,N
1501323935.8,286046959.3,N
1501323955.7,286046958.9,N
1501323975.5,286046959.2,N
1501323995.3,286046956.5,N
1501324015.2,286046959.1,N
1501324035.9,286046956.7,N
1501324055.7,286046957.4,N
1501324075.5,286046954.9,N
1501324095.4,286046953.6,Y
1501324115.2,286046977.9,N
1501324135.0,286046977.9,N
1501324136.0,286046977.9,N
1501324155.8,286046977.9,N
1501324175.6,286046976.5,N
1501324195.4,286046976.4,N
1501324215.3,286046978.3,N
1501324235.1,286046976.2,N
1501324255.8,286046976.7,N
1501324275.7,286046974.3,N
1501324295.5,286046974.6,N
1501324315.3,286046976.6,N
1501324335.2,286046974.4,N
1501324355.9,286046976.7,N
1501324375.7,286046974.6,N
1501324395.6,286046974.9,N
1501324415.4,286046973.3,N
1501324435.2,286046973.5,N
1501324455.0,286046971.6,N
1501324455.9,286046971.6,N
1501324475.8,286046972.0,N
1501324495.6,286046971.8,N
1501324515.5,286046970.2,N
1501324535.3,286046970.7,N
1501324555.1,286046967.8,N
1501324575.9,286046968.9,N
1501324595.7,286046966.3,N
1501324615.5,286046967.1,N
1501324635.3,286046964.6,N
1501324655.2,286046967.6,N
1501324675.0,286046967.2,N
1501324675.9,286046967.2,N
1501324695.7,286046966.9,N
1501324715.6,286046966.6,N
1501324735.4,286046966.5,N
1501324755.2,286046964.5,N
1501324775.1,286046962.9,N
1501324776.0,286046962.9,N
1501324795.8,286046963.1,N
1501324815.6,286046963.2,N
1501324835.5,286046963.7,N
1501324855.3,286046963.1,N
1501324875.1,286046963.6,N
1501324895.8,286046962.9,N
1501324915.7,286046962.0,N
1501324935.5,286046962.8,N
1501324955.3,286046961.0,N
1501324975.2,286046958.1,N
1501324995.9,286046960.5,N
1501325015.7,286046959.3,N
1501325035.6,286046958.1,N
1501325055.4,286046958.9,N
1501325075.2,286046958.5,N
1501325095.0,286046959.1,N
1501325096.0,286046959.1,N
1501325115.8,286046958.6,N
1501325135.6,286046958.7,N
1501325155.4,286046958.8,N
1501325175.3,286046960.7,N
1501325195.1,286046959.4,N
1501325215.8,286046956.6,N
1501325235.7,286046957.5,N
1501325255.5,286046955.2,N
1501325275.3,286046956.2,N
1501325295.2,286046956.4,N
1501325315.9,286046954.8,N
1501325335.7,286046952.1,Y
1501325355.6,286046981.8,N
1501325375.4,286046980.5,N
1501325395.2,286046981.1,N
1501325415.1,286046980.8,N
1501325416.0,286046980.8,N
1501325435.8,286046978.9,N
1501325455.6,286046979.4,N
1501325475.4,286046977.5,N
1501325495.3,286046977.7,N
1501325515.1,286046978.5,N
1501325535.8,286046975.8,N
1501325555.7,286046976.3,N
1501325575.5,286046977.2,N
1501325595.3,286046976.2,N
1501325615.2,286046976.8,N
1501325635.9,286046973.0,N
1501325655.7,286046975.4,N
1501325675.6,286046973.1,N
1501325695.4,286046973.1,N
1501325715.2,286046975.0,N
1501325735.0,286046973.3,N
1501325736.0,286046973.3,N
1501325755.8,286046972.7,N
1501325775.6,286046973.8,N
1501325795.4,286046971.5,N
1501325815.3,286046971.3,N
1501325835.1,286046969.8,N
1501325855.8,286046971.5,N
1501325875.7,286046969.7,N
1501325895.5,286046969.9,N
1501325915.3,286046967.9,N
1501325935.2,286046968.7,N
1501325955.9,286046968.8,N
1501325975.7,286046966.8,N
1501325995.6,286046965.1,N
